Location: Casalecchio di Reno
(44.4760°N, 11.2757°E)
Time: 22:40:38
(UTC+02:00)

QB50P2 - Pass Details

Date: 27 June 2024
Orbit: 561 x 578 km, 98.0° (Epoch: 17 July)

Event Time Altitude Azimuth Distance (km) Brightness Sun altitude
Rises 04:06:37 0° 12° (NNE) 2,765 ? -12.0°
Reaches altitude 10° 04:08:46 10° 12° (NNE) 1,863 ? -11.8°
Maximum altitude 04:12:48 86° 288° (WNW) 570 ? -11.3°
Enters shadow 04:16:21 13° 196° (SSW) 1,657 ? -10.9°
